TimeCST,TemperatureF,Dew PointF,Humidity,Sea Level PressureIn,VisibilityMPH,Wind Direction,Wind SpeedMPH,Gust SpeedMPH,PrecipitationIn,Events,Conditions,WindDirDegrees,DateUTC
12:53 AM,63.0,63.0,100,29.89,0.2,Calm,Calm,-,N/A,Fog,Fog,0,2012-12-25 06:53:00
1:01 AM,62.6,62.6,100,29.88,0.5,Calm,Calm,-,N/A,Fog,Fog,0,2012-12-25 07:01:00
1:39 AM,64.4,62.6,94,29.89,0.2,Calm,Calm,-,N/A,Fog,Fog,0,2012-12-25 07:39:00
1:53 AM,64.0,63.0,96,29.88,0.2,Calm,Calm,-,N/A,Fog,Fog,0,2012-12-25 07:53:00
2:10 AM,62.6,62.6,100,29.87,0.2,Calm,Calm,-,N/A,Fog,Fog,0,2012-12-25 08:10:00
2:26 AM,62.6,62.6,100,29.87,0.2,Calm,Calm,-,N/A,Fog,Fog,0,2012-12-25 08:26:00
2:53 AM,63.0,62.1,97,29.86,0.2,Calm,Calm,-,N/A,Fog,Fog,0,2012-12-25 08:53:00
3:00 AM,62.6,62.6,100,29.85,0.5,Calm,Calm,-,N/A,Fog,Fog,0,2012-12-25 09:00:00
3:08 AM,62.6,62.6,100,29.85,0.2,Calm,Calm,-,N/A,Fog,Fog,0,2012-12-25 09:08:00
3:36 AM,62.6,62.6,100,29.84,0.5,SE,3.5,-,N/A,Fog,Fog,140,2012-12-25 09:36:00
3:53 AM,63.0,62.1,97,29.85,1.5,Calm,Calm,-,N/A,,Overcast,0,2012-12-25 09:53:00
4:03 AM,62.6,62.6,100,29.83,2.5,ESE,3.5,-,N/A,,Overcast,120,2012-12-25 10:03:00
4:11 AM,62.6,60.8,94,29.83,3.0,SE,4.6,-,N/A,,Overcast,140,2012-12-25 10:11:00
4:30 AM,62.6,60.8,94,29.83,1.8,SE,3.5,-,N/A,,Overcast,130,2012-12-25 10:30:00
4:42 AM,62.6,62.6,100,29.83,0.5,Calm,Calm,-,N/A,Fog,Fog,0,2012-12-25 10:42:00
4:53 AM,63.0,62.1,97,29.83,0.2,Calm,Calm,-,N/A,Fog,Fog,0,2012-12-25 10:53:00
5:11 AM,62.6,62.6,100,29.82,0.5,Calm,Calm,-,N/A,Fog,Fog,0,2012-12-25 11:11:00
5:42 AM,62.6,62.6,100,29.81,2.0,SE,6.9,-,N/A,,Overcast,130,2012-12-25 11:42:00
5:51 AM,62.6,62.6,100,29.81,7.0,SE,5.8,-,N/A,,Overcast,140,2012-12-25 11:51:00
5:53 AM,63.0,63.0,100,29.81,9.0,SE,5.8,-,N/A,,Overcast,140,2012-12-25 11:53:00
6:10 AM,62.6,62.6,100,29.80,10.0,SE,8.1,-,N/A,,Overcast,140,2012-12-25 12:10:00
6:26 AM,64.4,62.6,94,29.82,10.0,South,4.6,-,N/A,Thunderstorm,Overcast,180,2012-12-25 12:26:00
6:48 AM,64.4,64.4,100,29.82,10.0,SSE,8.1,-,0.00,Rain-Thunderstorm,Light Rain,150,2012-12-25 12:48:00
6:53 AM,64.9,64.0,97,29.82,10.0,SSE,8.1,-,0.00,Rain,Light Rain,160,2012-12-25 12:53:00
7:53 AM,68.0,64.9,90,29.83,10.0,South,9.2,-,0.00,,Mostly Cloudy,180,2012-12-25 13:53:00
8:53 AM,70.0,64.9,84,29.82,10.0,South,10.4,17.3,N/A,,Clear,180,2012-12-25 14:53:00
9:53 AM,71.1,64.0,78,29.83,10.0,South,12.7,20.7,N/A,,Clear,180,2012-12-25 15:53:00
10:53 AM,72.0,63.0,73,29.80,10.0,South,10.4,20.7,N/A,,Mostly Cloudy,180,2012-12-25 16:53:00
11:53 AM,72.0,63.0,73,29.74,10.0,South,12.7,24.2,N/A,,Mostly Cloudy,170,2012-12-25 17:53:00
12:53 PM,72.0,63.0,73,29.72,10.0,South,12.7,19.6,N/A,,Clear,170,2012-12-25 18:53:00
2:53 PM,72.0,64.0,76,29.68,10.0,South,15.0,20.7,N/A,,Overcast,170,2012-12-25 20:53:00
3:53 PM,71.1,64.0,78,29.63,9.0,South,19.6,31.1,N/A,,Mostly Cloudy,170,2012-12-25 21:53:00
4:12 PM,71.6,64.4,78,29.61,9.0,South,20.7,29.9,N/A,Thunderstorm,Mostly Cloudy,170,2012-12-25 22:12:00
4:27 PM,69.8,62.6,78,29.60,10.0,South,16.1,27.6,N/A,,Mostly Cloudy,180,2012-12-25 22:27:00
4:53 PM,71.1,64.9,81,29.61,10.0,South,16.1,27.6,N/A,,Overcast,170,2012-12-25 22:53:00
5:50 PM,71.6,64.4,78,29.58,10.0,South,17.3,29.9,0.00,Thunderstorm,Overcast,170,2012-12-25 23:50:00
5:53 PM,70.0,64.9,84,29.59,9.0,South,18.4,29.9,0.00,Rain-Thunderstorm,Light Thunderstorms and Rain,180,2012-12-25 23:53:00
6:53 PM,69.1,64.9,87,29.59,6.0,South,11.5,25.3,0.04,Rain,Light Rain,180,2012-12-26 00:53:00
7:42 PM,62.6,55.4,77,29.61,10.0,WNW,16.1,33.4,0.00,,Overcast,290,2012-12-26 01:42:00
7:45 PM,60.8,51.8,72,29.63,10.0,WNW,15.0,33.4,0.00,Thunderstorm,Overcast,290,2012-12-26 01:45:00
7:53 PM,57.0,51.1,81,29.66,4.0,West,15.0,27.6,0.08,Rain-Thunderstorm,Heavy Rain,270,2012-12-26 01:53:00
7:58 PM,55.4,50.0,82,29.66,1.8,West,12.7,26.5,0.10,Rain-Thunderstorm,Heavy Thunderstorms and Rain,270,2012-12-26 01:58:00
8:19 PM,-9999,-9999,N/A,29.66,-9999.0,North,-9999.0,-,0.24,Thunderstorm,Thunderstorm,0,2012-12-26 02:19:00
8:29 PM,-9999,-9999,N/A,29.65,-9999.0,North,-9999.0,-,0.24,Thunderstorm,Unknown,0,2012-12-26 02:29:00
8:50 PM,-9999,-9999,N/A,29.65,-9999.0,North,-9999.0,-,0.24,,Unknown,0,2012-12-26 02:50:00
8:53 PM,-9999,-9999,N/A,29.66,-9999.0,North,-9999.0,-,0.24,,Unknown,0,2012-12-26 02:53:00
9:53 PM,-9999,-9999,N/A,29.69,-9999.0,North,-9999.0,-,N/A,,Unknown,0,2012-12-26 03:53:00
10:53 PM,55.9,51.1,84,29.69,10.0,SW,3.5,-,N/A,,Scattered Clouds,220,2012-12-26 04:53:00
11:53 PM,55.9,48.9,77,29.71,10.0,West,8.1,-,N/A,,Clear,270,2012-12-26 05:53:00